Regional Weather Roundup
Issued by NWS

Home | Current Version | Previous Version | Text Only | Print | Product List | Glossary Off
Versions: 1 2 3 4 5 6 7 8 9 10 11 12 13 14 15 16 17 18 19 20 21 22 23 24 25 26 27 28 29 30 31 32 33 34 35 36 37 38 39 40 41 42 43 44 45 46 47 48 49 50

000
ASUS43 KMKX 061910
RWRWI

WISCONSIN REGIONAL WEATHER ROUNDUP
NATIONAL WEATHER SERVICE MILWAUKEE/SULLIVAN WI
100 PM CST FRI MAR 06 2015

NOTE: "FAIR" INDICATES FEW OR NO CLOUDS BELOW 12,000 FEET WITH NO
SIGNIFICANT WEATHER AND/OR OBSTRUCTIONS TO VISIBILITY.

WIZ001-002-006>008-014>016-023>028-062000-
NORTHWEST WISCONSIN

CITY           SKY/WX    TMP DP  RH WIND       PRES   REMARKS
SUPERIOR ARPT  SUNNY     31  13  48 W9G17     30.00R WCI  23
ASHLAND        SUNNY     30  10  43 SW12G22   29.97S WCI  20
HAYWARD        SUNNY     27   9  46 W8        29.98F WCI  19
SIREN          SUNNY     28  11  48 W6        30.02F WCI  22
CUMBERLAND     SUNNY     27  10  50 SW7       30.01S WCI  19
RICE LAKE      SUNNY     26  11  53 W7        30.03F WCI  19
CHETEK         SUNNY     26  11  52 SW8       30.02F WCI  18
LADYSMITH      SUNNY     24   9  52 S9        30.02F WCI  15
EAU CLAIRE     SUNNY     27  12  53 W10       30.03F WCI  17
MENOMONIE      SUNNY     29  13  51 SW8       30.05S WCI  21
NEW RICHMOND   SUNNY     29  13  50 W7        30.03F WCI  22
OSCEOLA        SUNNY     32  16  51 SW7       30.06S WCI  26
$$

WIZ003>005-009-010-017-018-062000-
NORTH CENTRAL WISCONSIN

CITY           SKY/WX    TMP DP  RH WIND       PRES   REMARKS
MANITOWISH WTR SUNNY     22   7  50 SW13      29.92F WCI  10
ARBOR VITAE    SUNNY     24   8  50 SW10      29.92F WCI  14
WOODRUFF       SUNNY     24   8  50 SW10      29.92F WCI  14
RHINELANDER    SUNNY     22   7  52 SW16      29.94F WCI   8
EAGLE RIVER    SUNNY     22   6  48 SW14G22   29.91F WCI  10
LAND O LAKES   SUNNY     27   6  41 SW7       29.90F WCI  19
PHILLIPS       SUNNY     22   7  53 SW10G16   29.96F WCI  11
TOMAHAWK       SUNNY     23   6  48 CALM      29.97F
MEDFORD        MOSUNNY   22   8  56 S10       29.99F WCI  11
MERRILL        PTSUNNY   24   8  52 SW9       30.00F WCI  14
$$

WIZ029-030-035-036-043>047-062000-
CENTRAL WISCONSIN

CITY           SKY/WX    TMP DP  RH WIND       PRES   REMARKS
WAUSAU         CLOUDY    24   9  52 W10       29.99F WCI  14
MOSINEE        SUNNY     25  12  58 SW13      30.03F WCI  13
MARSHFIELD     CLOUDY    27  11  51 SW13      30.02F WCI  16
STEVENS POINT  PTSUNNY   24   9  51 S10       30.05F WCI  14
WAUPACA        PTSUNNY   31  11  42 SW14      30.08F WCI  21
WAUTOMA        NOT AVBL
WISC RAPIDS    CLOUDY    27  10  49 SW14      30.06F WCI  16
CAMP DOUGLAS   NOT AVBL
$$

WIZ011>013-019>022-031-037>040-048>050-062000-
NORTHEAST WISCONSIN

CITY           SKY/WX    TMP DP  RH WIND       PRES   REMARKS
ANTIGO         MOSUNNY   20   8  59 SW15G21   29.98F WCI   7
SHAWANO        CLOUDY    29   9  43 SW13G21   30.06F WCI  18
OCONTO         CLOUDY    24   9  52 SW16G22   30.08F WCI  11
STURGEON BAY   CLOUDY    25   9  50 SW22G31   30.07F WCI  10
GREEN BAY      CLOUDY    24  11  57 SW14G23   30.08F WCI  12
MANITOWOC      NOT AVBL
APPLETON       PTSUNNY   25  10  54 SW22      30.09F WCI  10
CLINTONVILLE   CLOUDY    27  10  50 SW15      30.06F WCI  15
OSHKOSH        CLOUDY    26  12  55 SW13G24   30.08F WCI  15
$$

WIZ032>034-041-042-053>061-062000-
SOUTHWEST WISCONSIN

CITY           SKY/WX    TMP DP  RH WIND       PRES   REMARKS
LA CROSSE      PTSUNNY   30  16  56 S15       30.10F WCI  19
SPARTA         CLOUDY    30  12  48 SW8       30.10F WCI  22
VIROQUA        SUNNY     27  14  58 SW15      30.09F WCI  15
BOSCOBEL       SUNNY     28  13  53 SW12      30.16F WCI  18
PRAIRIE DU CHI SUNNY     28  13  53 SW10      30.17F WCI  19
PLATTEVILLE    SUNNY     25  14  64 S18       30.17F WCI  11
$$

WIZ056-057-062-063-064-067-068-062000-
SOUTH CENTRAL WISCONSIN

CITY           SKY/WX    TMP DP  RH WIND       PRES   REMARKS
REEDSBURG      CLOUDY    26  12  56 S14       30.12F WCI  14
BARABOO/DELLS  CLOUDY    26  11  54 SW15      30.10F WCI  13
LONE ROCK      NOT AVBL
MINERAL POINT  SUNNY     27  12  54 SW18      30.14F WCI  13
MADISON        MOSUNNY   25   9  50 S14G23    30.15F WCI  13
MIDDLETON      SUNNY     27   8  44 S15G22    30.15F WCI  16
WATERTOWN      MOSUNNY   26  11  52 S21       30.16F WCI  12
MONROE         SUNNY     23  12  63 S17       30.17F WCI   9
JANESVILLE     NOT AVBL
$$

WIZ051-052-058>065-066-070>072-062000-
SOUTHEAST WISCONSIN

CITY           SKY/WX    TMP DP  RH WIND       PRES   REMARKS
MILWAUKEE      MOSUNNY   25   8  48 S20G26    30.19F WCI  11
WAUKESHA       MOSUNNY   25   7  46 SW15G21   30.18F WCI  12
MILWAUKEE/TIMM MOSUNNY   27   5  39 SW16G28   30.18F WCI  14
RACINE         PTSUNNY   25   8  48 SW16G26   30.21F WCI  12
BURLINGTON     MOSUNNY   22   8  54 S18G24    30.20F WCI   8
KENOSHA        CLOUDY    25   9  50 S21       30.20F WCI  11
FOND DU LAC    PTSUNNY   27  10  49 SW18G29   30.10F WCI  14
SHEBOYGAN      MOSUNNY   28  12  51 SW26G33   30.12F WCI  13
WEST BEND      PTSUNNY   28   9  43 SW17G28   30.14F WCI  16
JUNEAU         SUNNY     24  10  54 S25G31    30.16F WCI   8
$$

LSZ147-162-062000-
LAKE SUPERIOR

STATION/POSITION TIME  TEMP    WIND        PRES    WAVE
                       AIR SEA DIR/SP/G            HT/PER
                 (UTC) (F)     (DEG/KT/KT) (MB)    (FT/S)
DEVILS ISLAND    1900   24     240/ 22/ 26 1014.9F
PORT WING        1800   26     240/ 13/ 17 1015.6S
SAXON HARBOR     1800   26     220/  9/ 15 1015.2F
$$

LMZ867-665-643>646-062000-
LAKE MICHIGAN

STATION/POSITION TIME  TEMP    WIND        PRES    WAVE
                       AIR SEA DIR/SP/G            HT/PER
                 (UTC) (F)     (DEG/KT/KT) (MB)    (FT/S)
NORTHPORT PIER   1903   27     210/  8/ 20 1016.9F
SISTER BAY       1813   28     250/ 15/ 18   N/A
KEWAUNEE LAKESHO 1800   24     200/ 15/ 18 1019.7F
SHEBOYGAN LAKESH 1800   24     200/ 18/ 23 1023.2F
PORT WASHINGTON  1800   28     200/ 11/ 18 1023.0F
MILWAUKEE LAKESH 1800   23     210/ 18/ 22   N/A
KENOSHA   LAKESH 1900   26     200/ 15/ 24 1022.7F
$$

TC  - TEMPERATURE IN CELSIUS
VSB - VISIBILITY IN STATUTE MILES
WCI - WIND CHILL INDEX
HX  - HEAT INDEX



USA.gov is the U.S. government's official web portal to all federal, state and local government web resources and services.